Wind_Speed
24 23 23 24 24 24 23 22 21 20 21 21 21 21 21 21 20 20 19 19 19 18 18 18 18 18 18 18 17 17 17 17 17 17 17 17 17 17 17 17 17 17 17 18 18 17 17 17 16
24 24 25 26 26 25 24 23 22 22 22 22 23 23 23 22 22 21 21 21 21 21 21 20 20 19 19 19 19 19 19 19 19 19 19 19 19 19 19 18 19 19 19 19 19 19 19 19 18
24 25 26 27 27 26 25 24 24 24 24 24 24 25 24 23 23 23 22 22 22 22 22 22 22 21 21 21 21 21 21 21 21 21 21 21 21 21 21 21 20 20 21 21 21 21 20 20 20
25 26 26 27 26 26 26 26 26 26 26 25 26 26 26 25 25 24 24 24 24 24 24 24 24 23 23 23 23 23 23 23 23 23 23 23 23 23 23 23 22 22 23 23 22 22 22 21 21
25 26 27 27 27 26 27 27 28 28 27 27 28 28 27 26 26 26 26 26 26 26 26 26 25 25 25 25 25 25 25 25 25 25 25 25 25 25 25 25 25 24 24 24 24 24 24 23 22
26 27 28 27 27 27 27 28 28 29 29 28 29 29 29 28 28 28 27 28 27 27 27 27 27 27 27 27 27 27 27 27 27 27 27 27 27 28 28 28 27 27 27 27 26 25 25 25 25
27 28 29 29 28 28 28 29 29 29 30 30 30 30 29 29 29 29 29 29 29 29 29 29 29 29 29 29 29 29 30 30 29 29 29 29 29 30 30 30 29 29 29 29 28 27 26 26 26
28 29 29 29 29 29 29 30 30 30 31 31 31 31 30 30 31 31 31 31 31 31 30 31 31 31 31 31 32 32 32 31 31 31 31 31 31 31 31 31 30 30 30 30 30 29 28 28 28
28 29 29 29 30 30 30 31 30 31 31 31 32 32 32 32 32 32 32 32 32 33 33 33 33 33 34 34 34 34 34 34 33 33 33 33 32 32 32 32 32 32 32 32 31 31 30 30 30
28 29 29 30 31 31 31 31 31 31 31 32 33 33 32 33 33 33 34 34 34 35 35 35 35 36 36 36 36 36 36 36 36 36 35 34 34 34 34 33 33 33 33 33 33 32 32 32 31
28 29 29 31 32 33 33 33 33 33 32 33 33 33 33 33 34 35 36 36 36 36 36 36 37 37 37 37 37 38 38 38 37 38 37 36 36 36 36 35 35 34 34 34 34 34 34 34 33
29 30 31 31 32 34 34 34 34 33 33 34 34 34 34 35 36 36 37 37 37 37 38 38 38 38 38 38 38 39 39 39 38 38 38 37 37 37 37 37 36 36 36 35 35 35 35 35 35
29 30 31 31 33 34 35 35 34 34 34 34 34 35 36 37 37 37 37 38 38 38 39 39 39 39 39 39 39 40 40 40 39 39 39 38 38 37 37 37 37 37 37 36 36 35 36 35 36
29 30 31 32 33 34 35 36 36 35 35 35 35 35 36 37 37 37 38 38 38 39 39 39 39 40 40 40 40 40 40 41 40 39 39 39 39 38 37 38 38 37 36 36 36 36 36 36 36
28 29 30 32 33 33 35 36 36 36 36 36 36 36 36 37 37 38 38 38 39 39 39 39 39 40 40 40 40 40 40 40 40 39 39 39 39 39 38 38 38 37 37 37 37 37 37 37 37
28 29 30 31 32 33 34 34 34 35 36 36 37 37 37 37 38 38 38 39 39 39 38 38 38 39 40 40 40 40 40 40 40 39 39 39 39 39 39 38 38 38 38 38 37 37 38 37 38
28 29 30 31 32 32 33 32 33 33 35 36 37 37 37 37 38 38 38 38 38 38 37 37 37 37 37 38 39 39 40 39 39 40 40 39 38 39 39 39 39 39 39 39 38 38 38 38 39
28 29 30 31 31 32 32 32 32 33 34 35 36 36 37 37 37 38 38 38 37 37 36 36 36 36 36 37 38 38 39 40 40 40 40 39 39 39 40 40 40 40 40 40 40 40 39 40 40
28 29 30 31 31 32 32 32 32 33 34 34 35 36 36 36 37 37 37 36 36 37 36 36 37 37 37 37 38 38 39 40 40 41 41 41 40 39 40 41 41 40 40 41 41 40 40 41 40
28 29 29 30 30 31 32 32 32 33 33 33 34 34 35 35 36 36 35 35 35 36 36 37 37 37 38 38 39 39 40 40 41 41 42 43 41 40 41 42 42 41 41 40 40 41 40 41 40
27 28 28 28 29 30 31 31 31 31 32 32 33 33 34 34 34 34 34 34 35 36 36 36 36 37 38 38 38 39 39 40 41 41 41 42 41 42 41 41 42 42 42 41 41 41 41 41 41
26 27 28 29 29 30 30 31 29 30 31 31 31 32 32 32 33 33 34 34 34 34 34 35 36 36 37 37 37 38 38 38 39 40 41 42 42 41 40 41 42 41 41 42 42 42 43 42 41
25 26 28 29 30 31 30 31 29 29 29 29 30 30 30 30 31 32 32 33 33 33 33 34 34 35 35 36 36 35 36 36 37 37 38 39 39 39 39 40 41 41 41 41 42 43 43 42 41
25 26 28 29 30 31 29 30 29 27 27 27 28 28 29 29 30 30 30 31 31 31 31 32 32 32 33 33 34 34 34 35 36 36 37 37 38 38 38 39 39 40 40 40 42 43 43 41 41
26 27 27 28 29 29 27 28 27 26 25 25 26 27 27 27 28 28 28 28 29 29 30 30 30 31 31 31 32 33 34 35 35 36 36 36 36 36 36 38 39 40 39 40 41 41 41 42 42
25 26 26 26 27 27 27 27 27 26 25 25 26 26 26 26 26 27 27 27 28 28 28 29 30 30 30 31 31 31 32 33 33 34 35 36 35 35 35 36 37 38 38 39 38 39 40 41 40
25 26 25 26 27 27 26 26 26 25 24 24 24 25 25 26 26 26 26 27 27 28 29 28 28 28 29 30 30 30 30 30 31 32 34 34 35 35 35 35 36 38 38 38 38 39 40 39 38
25 25 23 24 25 25 24 24 24 22 22 22 23 24 25 26 26 27 27 27 27 27 28 28 28 28 29 29 29 30 30 30 31 31 32 33 34 34 34 35 35 37 37 38 38 38 37 36 36
23 23 22 22 23 25 25 23 22 21 21 22 23 24 25 25 26 27 27 27 27 28 28 28 29 29 30 30 30 30 30 30 30 31 32 33 33 33 34 35 35 36 37 38 38 38 36 35 35
21 21 21 22 23 23 24 23 21 21 21 21 23 24 24 25 26 26 26 26 26 27 27 28 29 29 29 29 30 30 30 30 30 30 31 32 33 33 33 34 35 36 37 36 36 36 36 35 34
Wind_Direction
238 238 240 240 241 242 244 244 246 247 248 249 249 251 252 252 252 255 257 257 258 258 258 257 257 257 257 258 259 260 262 262 263 264 265 264 264 265 266 265 266 266 265 265 264 263 264 264 265
237 238 241 241 243 244 245 246 247 247 249 250 250 251 253 253 253 255 256 257 257 258 258 258 258 258 258 259 261 262 263 264 264 264 264 265 265 266 266 266 267 267 266 266 264 263 263 264 264
239 239 241 242 243 246 247 247 247 248 250 251 251 251 252 253 254 255 256 257 257 257 257 257 257 258 258 260 262 264 265 266 266 266 266 266 266 266 266 266 267 267 267 266 264 262 262 263 264
240 240 241 244 246 247 248 248 248 249 250 252 252 253 253 254 255 255 256 256 256 256 256 257 258 258 259 260 262 263 265 266 266 266 266 267 267 267 267 267 267 267 267 265 264 262 261 261 262
242 243 244 246 249 250 251 250 250 249 251 253 253 254 254 254 255 256 257 257 257 256 256 257 258 260 261 262 262 262 264 265 265 266 267 267 268 268 269 268 268 267 266 266 263 262 261 259 260
244 245 247 249 251 252 253 253 252 251 251 253 254 254 255 255 255 256 257 258 258 257 257 257 258 260 261 262 263 264 264 264 265 266 267 267 268 269 269 269 268 268 267 266 264 262 260 258 258
248 248 249 250 252 253 253 254 254 253 253 254 254 254 254 255 255 256 257 258 258 257 257 257 258 260 262 264 265 265 266 265 265 266 267 268 268 268 268 268 267 266 266 265 263 261 259 258 257
250 250 251 251 252 252 253 254 255 255 255 254 254 254 254 255 256 257 258 258 258 258 259 259 260 261 262 264 265 265 266 267 267 267 268 268 268 268 268 267 266 266 265 264 263 260 259 258 258
251 253 253 252 253 254 254 254 255 255 254 254 254 255 256 255 256 257 258 258 259 260 260 261 261 262 263 264 265 265 265 267 268 267 268 268 268 268 268 267 266 265 265 264 263 261 259 258 258
253 255 255 254 254 255 254 255 255 255 256 256 256 256 256 256 256 257 258 258 259 261 261 262 263 264 265 265 265 265 265 266 267 267 267 268 267 267 267 267 267 266 265 264 262 261 259 258 258
256 258 257 256 255 255 254 255 256 257 257 258 258 257 257 257 257 258 258 259 260 260 261 262 263 264 265 265 266 266 266 266 266 267 267 267 266 266 266 266 266 266 266 265 263 261 259 259 258
259 260 260 258 257 256 255 255 256 257 258 258 258 258 258 258 258 258 260 260 261 262 262 263 264 265 265 266 266 266 266 265 265 266 267 267 265 265 265 266 266 266 266 265 264 262 261 259 259
263 262 261 260 258 257 257 256 256 257 258 258 259 260 260 260 260 260 261 262 263 264 264 264 264 265 265 265 266 266 265 264 265 266 266 266 264 264 265 265 265 265 265 265 264 262 261 260 260
265 264 262 261 260 259 259 258 258 258 259 259 260 260 261 260 260 261 262 263 263 264 265 264 264 264 264 264 265 265 264 264 265 265 264 264 264 264 265 265 265 264 264 264 263 261 261 261 262
266 265 264 262 262 262 261 260 259 259 259 260 261 261 262 261 261 261 261 262 263 265 265 265 264 264 264 264 264 263 264 265 264 263 263 263 264 265 265 266 265 264 264 264 263 261 261 262 264
268 267 265 264 263 264 263 262 262 261 260 260 261 261 262 263 262 261 262 263 264 264 265 264 264 264 264 264 264 263 264 265 265 263 262 262 264 264 264 265 265 265 264 264 263 261 261 263 264
270 269 267 266 264 264 264 263 263 263 262 262 262 262 262 263 263 262 263 264 265 264 264 264 265 266 266 265 265 264 264 265 264 262 260 261 262 263 264 264 265 265 264 264 263 262 262 264 264
272 272 270 267 266 266 265 264 263 265 265 264 263 263 263 263 263 262 264 263 264 265 263 263 265 266 267 267 266 265 266 266 264 262 260 261 262 263 262 262 263 264 264 264 262 263 264 265 265
273 272 272 269 267 268 267 266 265 266 267 265 264 263 263 263 262 263 263 263 264 264 263 264 265 266 267 267 267 266 267 266 265 263 261 261 263 263 263 261 262 263 263 262 262 263 265 265 266
273 273 273 272 270 269 270 269 267 266 267 267 265 264 263 262 262 262 262 263 264 265 264 266 267 268 269 268 268 268 267 266 266 264 263 262 264 263 262 261 262 262 262 261 263 264 265 265 266
275 275 274 275 272 270 271 271 269 267 268 268 266 265 263 261 261 261 261 263 265 265 266 268 269 269 270 270 269 269 268 268 267 265 265 263 264 264 263 262 262 261 261 262 264 264 265 266 267
277 278 277 275 275 274 274 275 272 270 270 269 268 265 263 261 260 260 262 264 266 267 267 269 269 269 270 270 269 269 269 269 268 266 265 263 263 264 263 262 262 262 262 262 264 265 267 267 267
282 281 279 278 276 275 275 277 275 272 272 271 270 267 264 261 259 259 262 265 267 268 268 269 271 271 271 270 268 268 269 269 269 267 265 264 264 265 264 264 262 262 263 265 265 265 267 267 266
286 285 282 280 279 278 277 278 276 273 273 273 271 268 265 262 260 261 262 265 267 269 269 270 271 271 272 272 268 269 270 270 270 268 266 266 265 265 265 264 263 263 263 265 265 265 266 265 265
286 288 287 283 281 280 278 277 277 275 274 274 273 269 266 263 262 262 263 264 266 268 270 270 271 272 273 274 272 271 272 271 269 268 267 267 266 266 265 264 264 263 264 264 265 265 265 265 265
288 287 286 284 283 281 279 278 278 277 275 274 273 271 267 267 266 265 266 266 267 269 271 270 272 272 272 273 274 273 273 272 270 269 267 266 266 266 265 264 264 264 264 265 267 266 265 265 264
289 287 286 286 285 284 282 281 281 280 276 274 273 271 268 267 267 267 267 267 268 270 272 271 270 271 272 273 273 272 272 272 270 269 267 266 266 266 266 266 264 263 263 265 267 265 263 263 262
291 288 287 286 288 288 288 287 285 283 277 273 272 271 269 268 268 269 269 269 270 271 271 271 270 271 272 272 272 272 272 271 270 269 268 268 268 268 267 266 265 265 265 266 266 265 264 263 262
293 286 284 286 288 289 290 290 289 285 279 275 272 271 270 268 267 268 270 271 271 271 272 273 272 271 271 271 271 272 272 271 270 269 269 269 268 268 268 267 268 268 268 267 266 265 265 263 263
293 287 284 284 287 289 290 292 291 285 280 277 274 272 270 270 269 269 270 271 273 275 275 276 275 273 273 273 273 274 274 273 273 271 270 269 269 268 268 270 270 270 269 268 265 264 265 263 263
Height
5825 5826 5828 5830 5831 5832 5834 5836 5837 5838 5838 5839 5839 5840 5840 5841 5842 5844 5843 5842 5842 5842 5842 5842 5843 5843 5843 5843 5843 5844 5844 5844 5844 5843 5843 5843 5843 5843 5843 5843 5843 5843 5843 5843 5842 5842 5842 5842 5842
5820 5822 5824 5825 5826 5828 5830 5831 5832 5833 5834 5834 5835 5835 5836 5836 5837 5838 5838 5838 5838 5838 5838 5839 5839 5839 5839 5839 5840 5840 5840 5840 5840 5840 5840 5839 5839 5839 5839 5839 5839 5839 5839 5839 5838 5838 5839 5838 5838
5816 5817 5819 5820 5821 5823 5825 5827 5828 5828 5829 5830 5830 5830 5831 5832 5833 5833 5834 5834 5834 5834 5834 5835 5835 5835 5835 5835 5835 5835 5836 5836 5836 5835 5835 5835 5835 5835 5835 5834 5834 5834 5834 5834 5834 5834 5834 5834 5834
5811 5813 5814 5815 5816 5819 5820 5822 5822 5823 5824 5824 5825 5825 5826 5827 5828 5828 5829 5829 5829 5829 5830 5830 5830 5830 5830 5830 5830 5831 5831 5831 5831 5831 5831 5830 5830 5830 5830 5829 5829 5829 5829 5829 5829 5829 5829 5830 5830
5806 5807 5808 5810 5811 5813 5814 5815 5816 5817 5818 5819 5819 5820 5820 5822 5822 5823 5823 5823 5824 5824 5824 5825 5825 5825 5825 5825 5825 5825 5825 5825 5825 5825 5825 5825 5825 5824 5824 5824 5823 5823 5823 5823 5823 5824 5824 5824 5825
5801 5802 5803 5804 5806 5808 5808 5809 5810 5811 5812 5813 5813 5814 5815 5815 5816 5817 5817 5818 5818 5818 5819 5819 5819 5819 5819 5819 5819 5819 5819 5819 5819 5819 5819 5819 5819 5818 5818 5817 5817 5817 5817 5817 5817 5818 5818 5819 5819
5795 5796 5797 5799 5800 5801 5802 5802 5804 5805 5805 5806 5807 5807 5808 5809 5810 5810 5811 5811 5811 5812 5812 5812 5813 5813 5813 5813 5813 5813 5813 5813 5813 5813 5812 5812 5812 5811 5811 5810 5810 5810 5810 5810 5811 5811 5812 5813 5814
5789 5791 5791 5793 5794 5795 5796 5796 5797 5798 5799 5799 5800 5801 5802 5802 5803 5803 5804 5804 5804 5805 5805 5805 5805 5805 5806 5806 5806 5806 5806 5806 5806 5805 5805 5805 5805 5804 5804 5803 5803 5803 5803 5803 5804 5805 5806 5807 5807
5782 5785 5785 5786 5787 5788 5789 5789 5790 5791 5791 5792 5792 5793 5795 5795 5795 5796 5796 5797 5797 5797 5797 5797 5797 5798 5798 5798 5798 5798 5798 5798 5798 5797 5797 5797 5797 5796 5796 5796 5795 5795 5795 5795 5796 5797 5798 5799 5800
5776 5777 5779 5779 5780 5781 5781 5782 5782 5783 5784 5784 5785 5785 5786 5787 5788 5788 5789 5789 5789 5789 5789 5789 5789 5789 5789 5789 5789 5789 5789 5789 5789 5789 5788 5789 5788 5788 5788 5788 5788 5787 5787 5787 5788 5789 5790 5792 5793
5769 5770 5771 5771 5772 5772 5773 5774 5774 5775 5776 5777 5777 5778 5778 5779 5779 5780 5780 5780 5780 5781 5781 5781 5780 5780 5780 5780 5780 5780 5780 5780 5780 5780 5780 5780 5780 5780 5780 5780 5780 5779 5779 5779 5780 5781 5783 5784 5785
5763 5763 5763 5763 5763 5764 5765 5766 5766 5767 5769 5768 5768 5769 5770 5770 5771 5771 5771 5772 5772 5772 5772 5772 5771 5771 5771 5771 5770 5770 5770 5770 5771 5770 5770 5770 5771 5771 5771 5771 5771 5771 5771 5771 5772 5773 5774 5775 5776
5755 5755 5755 5755 5755 5755 5755 5756 5757 5759 5759 5759 5760 5760 5761 5761 5762 5762 5762 5763 5763 5763 5763 5762 5762 5761 5761 5761 5760 5760 5760 5760 5761 5761 5761 5761 5761 5762 5762 5762 5762 5762 5762 5763 5763 5764 5765 5766 5768
5747 5747 5747 5747 5746 5746 5746 5747 5748 5750 5750 5751 5751 5751 5751 5752 5752 5753 5753 5753 5753 5753 5753 5752 5751 5751 5751 5750 5750 5750 5750 5750 5751 5751 5751 5751 5752 5752 5753 5753 5753 5753 5753 5754 5754 5755 5757 5757 5758
5739 5739 5739 5739 5738 5738 5737 5738 5739 5740 5740 5741 5742 5742 5742 5742 5743 5743 5743 5743 5743 5743 5742 5742 5741 5741 5740 5740 5740 5740 5740 5740 5740 5740 5741 5741 5742 5743 5743 5743 5744 5744 5744 5745 5746 5747 5747 5748 5749
5732 5731 5731 5731 5730 5729 5730 5730 5730 5730 5731 5731 5732 5732 5733 5733 5733 5733 5733 5733 5733 5732 5732 5731 5731 5730 5730 5729 5729 5729 5729 5729 5729 5730 5731 5732 5732 5733 5734 5734 5734 5735 5735 5736 5737 5737 5738 5739 5740
5724 5724 5723 5723 5722 5721 5721 5721 5721 5721 5721 5722 5722 5722 5723 5723 5723 5723 5723 5723 5722 5722 5722 5722 5721 5720 5720 5719 5719 5719 5719 5719 5719 5719 5720 5721 5722 5723 5724 5724 5725 5725 5726 5727 5728 5728 5729 5730 5730
5717 5716 5715 5714 5713 5713 5712 5713 5712 5712 5712 5712 5712 5712 5713 5713 5713 5713 5713 5713 5713 5712 5712 5712 5712 5711 5710 5710 5709 5709 5709 5709 5709 5709 5710 5711 5712 5713 5713 5714 5715 5716 5717 5717 5718 5718 5719 5720 5720
5708 5707 5706 5705 5705 5704 5704 5704 5704 5703 5702 5702 5702 5702 5703 5703 5703 5703 5703 5703 5703 5703 5703 5703 5702 5702 5701 5700 5700 5700 5700 5699 5699 5699 5700 5700 5701 5702 5703 5704 5705 5706 5707 5708 5708 5709 5710 5710 5709
5700 5699 5698 5697 5696 5695 5695 5695 5695 5694 5693 5693 5693 5692 5693 5693 5693 5693 5693 5694 5694 5694 5693 5693 5693 5692 5692 5691 5690 5690 5689 5689 5688 5689 5689 5690 5691 5692 5693 5694 5695 5696 5697 5698 5699 5700 5700 5700 5699
5692 5691 5690 5689 5688 5687 5686 5686 5686 5686 5685 5684 5683 5683 5683 5684 5684 5684 5684 5685 5685 5684 5684 5684 5683 5682 5681 5680 5680 5679 5679 5679 5679 5679 5679 5680 5680 5681 5682 5684 5685 5686 5687 5688 5689 5689 5690 5690 5689
5685 5684 5682 5681 5680 5679 5679 5676 5678 5677 5676 5675 5674 5674 5674 5674 5675 5675 5676 5676 5676 5675 5675 5675 5674 5673 5671 5670 5669 5669 5669 5669 5669 5668 5668 5669 5670 5671 5672 5674 5675 5676 5677 5678 5678 5679 5679 5679 5678
5678 5677 5675 5673 5672 5671 5670 5668 5670 5668 5667 5667 5666 5665 5665 5665 5666 5666 5667 5667 5667 5667 5666 5665 5664 5663 5662 5660 5659 5659 5659 5658 5658 5658 5658 5659 5660 5661 5662 5663 5664 5665 5666 5667 5667 5668 5668 5668 5668
5671 5670 5668 5666 5664 5663 5663 5661 5661 5660 5659 5659 5658 5657 5656 5657 5657 5657 5658 5658 5658 5658 5657 5657 5655 5654 5652 5651 5650 5649 5649 5649 5649 5649 5649 5650 5650 5651 5652 5652 5653 5655 5655 5656 5657 5657 5657 5657 5657
5665 5663 5660 5658 5656 5655 5655 5653 5653 5653 5652 5651 5650 5649 5649 5648 5649 5649 5649 5650 5650 5649 5649 5648 5647 5646 5644 5643 5641 5641 5640 5639 5639 5640 5640 5641 5641 5641 5642 5642 5643 5644 5645 5646 5646 5646 5646 5646 5647
5658 5656 5654 5651 5649 5648 5647 5645 5646 5645 5644 5643 5642 5641 5641 5641 5641 5641 5641 5642 5641 5641 5640 5639 5638 5638 5636 5635 5634 5632 5632 5631 5631 5631 5631 5631 5632 5632 5632 5633 5633 5634 5635 5636 5636 5636 5636 5636 5636
5651 5649 5647 5645 5642 5641 5639 5639 5638 5637 5636 5635 5634 5633 5633 5633 5634 5634 5634 5634 5633 5633 5632 5631 5630 5629 5628 5627 5626 5625 5623 5623 5623 5622 5622 5622 5623 5623 5623 5623 5624 5625 5625 5626 5626 5625 5625 5626 5626
5644 5642 5640 5637 5635 5633 5633 5632 5631 5629 5628 5628 5627 5626 5626 5626 5626 5626 5626 5626 5626 5625 5624 5623 5622 5621 5620 5619 5618 5617 5616 5615 5615 5614 5614 5614 5614 5614 5614 5614 5614 5615 5615 5615 5615 5615 5615 5615 5616
5638 5636 5634 5631 5630 5628 5626 5628 5625 5623 5622 5621 5620 5619 5619 5619 5619 5619 5619 5619 5618 5617 5616 5615 5614 5613 5612 5611 5610 5609 5608 5607 5606 5606 5606 5605 5605 5604 5604 5605 5604 5605 5605 5605 5604 5604 5605 5605 5606
5632 5630 5628 5627 5624 5622 5620 5623 5618 5617 5615 5614 5613 5612 5612 5612 5612 5611 5611 5611 5610 5609 5609 5607 5606 5605 5604 5603 5602 5601 5600 5599 5598 5597 5597 5597 5596 5596 5595 5595 5595 5595 5595 5595 5595 5595 5595 5596 5596